Location: Poughquag
(41.6090°N, 73.6820°W)
Time: 07:29:40
(UTC-05:00)

DIWATA 2B (PO-101) - Pass Details

Date: 16 November 2025
Orbit: 563 x 574 km, 98.1° (Epoch: 07 December)

Event Time Altitude Azimuth Distance (km) Brightness Sun altitude
Rises 03:42:56 0° 111° (ESE) 2,766 ? -34.0°
Reaches altitude 10° 03:47:27 10° 64° (ENE) 1,873 ? -33.1°
Maximum altitude 03:47:37 10° 61° (ENE) 1,871 ? -33.1°
Drops below altitude 10° 03:47:48 10° 59° (ENE) 1,873 ? -33.1°
Enters shadow 03:51:28 - 17° (NNE) 2,515 ? -32.4°
